Wautoma, WI

2:04 AM CDT on August 24, 2016 (GMT -0500)
Wautoma

Weather History for KY50 - June, 2013

Change the Weather History Date:

Sunday, June 30, 2013

  Actual Average (KPCZ) Record (KPCZ)
Temperature  
Mean Temperature 66 °F -  
Max Temperature 77 °F 80 °F 98 °F (1963)
Min Temperature 55 °F 57 °F 46 °F (2007)
Cooling Degree Days 1    
Growing Degree Days 16 (Base 50)    
Moisture  
Dew Point 49 °F    
Average Humidity 55    
Maximum Humidity 93    
Minimum Humidity 26    
Precipitation  
Precipitation 0.00 in - - ()
Sea Level Pressure  
Sea Level Pressure 29.99 in    
Wind  
Wind Speed 7 mph (NNE)    
Max Wind Speed 14 mph    
Max Gust Speed 18 mph    
Visibility 10 miles    
Events      
Averages and records for this station are not official NWS values.
T = Trace of Precipitation, MM = Missing Value Source: NWS Daily Summary

Daily Weather History Graph

Daily Weather History Graph

Search for Another Location

Airport or City:

Trip Planner

Search our weather history database for the weather conditions in past years. The results will help you decide how hot, cold, wet, or windy it might be!

Date:

Astronomy

Jun. 30, 2013 Rise Set
Actual Time 5:17 AM CDT 8:44 PM CDT
Civil Twilight 4:41 AM CDT 9:20 PM CDT
Nautical Twilight 3:54 AM CDT 10:07 PM CDT
Astronomical Twilight 2:53 AM CDT 11:07 PM CDT
Moon 12:26 AM CDT (6/30) 1:49 PM CDT (6/30)
Length of Visible Light 16h 38m
Length of Day
15h 26m
Last Quarter, 45% of the Moon is Illuminated
Jun 30
Last Quarter
Jul 8
New
Jul 15
First Quarter
Jul 22
Full
Jul 29
Last Quarter

Hourly Weather History & Observations

Time (CDT) Temp. Dew Point Humidity Pressure Visibility Wind Dir Wind Speed Gust Speed Precip Events Conditions
12:56 AM 61.0 °F 50.0 °F 67% 29.89 in 10.0 mi NNE 8.1 mph - N/A   Clear
1:56 AM 59.0 °F 46.9 °F 64% 29.89 in 10.0 mi North 6.9 mph - N/A   Clear
2:56 AM 57.9 °F 45.9 °F 64% 29.90 in 10.0 mi NNE 5.8 mph - N/A   Clear
3:56 AM 56.8 °F 45.9 °F 67% 29.91 in 10.0 mi NNE 5.8 mph - N/A   Clear
4:56 AM 55.9 °F 45.9 °F 69% 29.92 in 10.0 mi NNE 6.9 mph - N/A   Clear
5:56 AM 56.8 °F 45.0 °F 64% 29.94 in 10.0 mi North 5.8 mph - N/A   Clear
6:56 AM 59.0 °F 45.9 °F 62% 29.96 in 10.0 mi NNE 8.1 mph - N/A   Clear
7:56 AM 61.9 °F 46.9 °F 58% 29.97 in 10.0 mi NNE 10.4 mph - N/A   Clear
8:56 AM 63.9 °F 48.9 °F 58% 29.99 in 10.0 mi NNE 6.9 mph - N/A   Clear
9:56 AM 68.0 °F 50.0 °F 52% 29.98 in 10.0 mi NNE 8.1 mph - N/A   Clear
10:56 AM 70.9 °F 50.9 °F 49% 29.99 in 10.0 mi NNE 9.2 mph - N/A   Clear
11:56 AM 73.9 °F 52.0 °F 46% 29.99 in 10.0 mi NE 8.1 mph 17.3 mph N/A   Clear
12:56 PM 75.9 °F 50.9 °F 41% 30.00 in 10.0 mi NE 11.5 mph - N/A   Clear
1:56 PM 77.0 °F 50.0 °F 39% 30.00 in 10.0 mi NNE 8.1 mph - N/A   Clear
2:56 PM 77.0 °F 39.9 °F 26% 30.00 in 10.0 mi NNE 13.8 mph 18.4 mph N/A   Clear
3:56 PM 77.9 °F 41.0 °F 27% 30.01 in 10.0 mi NNE 10.4 mph - N/A   Clear
4:56 PM 77.9 °F 41.9 °F 28% 30.01 in 10.0 mi NNE 8.1 mph 17.3 mph N/A   Clear
5:56 PM 77.0 °F 43.0 °F 30% 30.01 in 10.0 mi ENE 8.1 mph - N/A   Clear
6:56 PM 75.9 °F 46.9 °F 36% 30.02 in 10.0 mi ENE 3.5 mph - N/A   Clear
7:56 PM 72.9 °F 56.8 °F 57% 30.02 in 10.0 mi Calm Calm - N/A   Clear
8:56 PM 66.9 °F 55.9 °F 68% 30.04 in 10.0 mi ENE 3.5 mph - N/A   Clear
9:56 PM 61.0 °F 55.9 °F 83% 30.06 in 10.0 mi Calm Calm - N/A   Clear
10:56 PM 59.0 °F 54.0 °F 83% 30.06 in 10.0 mi Calm Calm - N/A   Clear
11:56 PM 55.9 °F 54.0 °F 93% 30.08 in 10.0 mi Calm Calm - N/A   Clear